Toms River, NJ

2:54 PM EDT on September 15, 2019 (GMT -0400)
Miller

Weather History for KMJX - August, 2019

Change the Weather History Date:

Saturday, August 24, 2019

  Actual Average Record
Temperature  
Mean Temperature 68 °F -  
Max Temperature 78 °F 81 °F 91 °F (1976)
Min Temperature 55 °F 58 °F 45 °F (1971)
Cooling Degree Days 2    
Growing Degree Days 18 (Base 50)    
Moisture  
Dew Point 55 °F    
Average Humidity 56    
Maximum Humidity 100    
Minimum Humidity 39    
Precipitation  
Precipitation 0.02 in - - ()
Sea Level Pressure  
Sea Level Pressure 30.17 in    
Wind  
Wind Speed 6 mph (NNE)    
Max Wind Speed 15 mph    
Max Gust Speed -    
Visibility 10 miles    
Events      
Averages and records for this station are not official NWS values.
T = Trace of Precipitation, MM = Missing Value Source: NWS Daily Summary

Daily Weather History Graph

Daily Weather History Graph

Search for Another Location

Airport or City:

Astronomy

Aug. 24, 2019 Rise Set
Actual Time 6:17 AM EDT 7:41 PM EDT
Civil Twilight 5:48 AM EDT 8:09 PM EDT
Nautical Twilight 5:14 AM EDT 8:43 PM EDT
Astronomical Twilight 4:39 AM EDT 9:18 PM EDT
Moon 12:08 AM EDT (8/24) 2:54 PM EDT (8/24)
Length of Visible Light 14h 20m
Length of Day
13h 23m
Last Quarter, 39% of the Moon is Illuminated
Aug 24
Last Quarter
Aug 30
New
Sep 5
First Quarter
Sep 14
Full
Sep 21
Last Quarter

Hourly Weather History & Observations

Time (EDT) Temp. Dew Point Humidity Pressure Visibility Wind Dir Wind Speed Gust Speed Precip Events Conditions
12:56 AM 62.1 °F - N/A% 30.08 in 10.0 mi NNW 6.9 mph - 0.01 in   Clear
1:56 AM - - N/A% 30.06 in 10.0 mi NNW 5.8 mph - N/A   Clear
2:56 AM 59.0 °F - N/A% 30.08 in 10.0 mi NNW 4.6 mph - N/A   Clear
3:56 AM 57.9 °F - N/A% 30.09 in 10.0 mi NNW 5.8 mph - N/A   Clear
4:56 AM 57.9 °F - N/A% 30.11 in 10.0 mi NNW 4.6 mph - N/A   Clear
5:56 AM 57.9 °F - N/A% 30.12 in 10.0 mi North 5.8 mph - N/A   Mostly Cloudy
7:56 AM 63.0 °F - N/A% 30.17 in 10.0 mi North 6.9 mph - N/A   Mostly Cloudy
8:56 AM 68.0 °F 62.1 °F 81% 30.17 in 10.0 mi NNE 10.4 mph - N/A   Overcast
9:56 AM 72.0 °F 55.0 °F 55% 30.18 in 10.0 mi NE 15.0 mph - N/A   Mostly Cloudy
10:56 AM 73.0 °F 52.0 °F 48% 30.18 in 10.0 mi NNE 13.8 mph - 0.01 in   Overcast
11:56 AM 75.0 °F 51.1 °F 43% 30.17 in 10.0 mi NE 10.4 mph - N/A   Clear
12:56 PM 75.9 °F 50.0 °F 40% 30.18 in 10.0 mi North 10.4 mph - N/A   Partly Cloudy
1:56 PM 77.0 °F 50.0 °F 39% 30.17 in 10.0 mi Calm Calm - N/A   Partly Cloudy
2:56 PM 78.1 °F 51.1 °F 39% 30.17 in 10.0 mi Variable 4.6 mph - N/A   Mostly Cloudy
3:56 PM 75.9 °F 54.0 °F 46% 30.17 in 10.0 mi ESE 6.9 mph - N/A   Overcast
4:56 PM 75.0 °F 55.0 °F 50% 30.18 in 10.0 mi ESE 8.1 mph - N/A   Mostly Cloudy
5:56 PM 73.9 °F 55.0 °F 52% 30.19 in 10.0 mi Variable 5.8 mph - N/A   Mostly Cloudy
6:56 PM 72.0 °F 57.0 °F 59% 30.19 in 10.0 mi East 3.5 mph - N/A   Mostly Cloudy
7:56 PM 66.9 °F 59.0 °F 76% 30.21 in 10.0 mi Calm Calm - N/A   Clear
8:56 PM 61.0 °F 61.0 °F 100% 30.23 in 10.0 mi Calm Calm - N/A   Clear
9:56 PM 59.0 °F - N/A% 30.24 in 10.0 mi Calm Calm - N/A   Clear
10:56 PM 59.0 °F - N/A% 30.25 in 10.0 mi Calm Calm - N/A   Partly Cloudy
11:56 PM 55.9 °F - N/A% 30.25 in 10.0 mi Calm Calm - N/A   Mostly Cloudy